www.pogodaiklimat.ru

Погода и климат >> Архив погоды >> Индия >> Jharsuguda


ПОГОДА в Jharsuguda

  • Прогноз погоды в Jharsuguda
  • Монитор погоды в Jharsuguda
  • Климат города

АРХИВ ПОГОДЫ в Jharsuguda

Время (UTC), дата Ветер
(напр.,м/с)
 
Видим.   Явления Облачность Т
(С)
Тd
(С)
f
(%)
Тe
(С)
Тes
(С)
Комфортность P
(гПа)
Po
(гПа)
Тmin
(С)
Tmax
(С)
R
(мм)
R24
(мм)
S
(см)
21 10.10 СВ 1 2000 м мгла 10/6 540 м
[Sc As op]
+22.4 +21.2 93 +29 +29 очень
душно
1007.7 1008.0
00 11.10 СВ 3 2000 м мгла 10/6 540 м
[Sc As op]
+24.0 +21.3 85 +30 +30 очень
душно
1005.6 1006.0
03 11.10 СВ 3 2000 м мгла 9/4 540 м
[Sc Ac trans Ci fib]
+26.2 +22.0 78 +34 +36 очень
душно
1006.9 1007.0 +22.4
06 11.10 СВ 3 4000 м мгла 10/4 540 м
[Sc As trans]
+27.4 +22.1 73 +36 +39 очень
душно
1006.5 1007.0
09 11.10 СВ 2 4000 м {дождь} 10/8 540 м
[Sc As op]
+27.4 +22.4 74 +36 +36 очень
душно
1004.8 1005.0 0.0
12 11.10 СВ 2 2000 м слабый дождь 10/8 540 м
[Sc As op]
+25.2 +22.5 85 +33 +33 очень
душно
1005.0 1005.0 +27.9 0.0
15 11.10 СВ 2 2000 м слабый дождь 10/8 540 м
[Sc As op]
+25.4 +22.1 82 +33 +33 очень
душно
1007.8 1008.0 0.0
18 11.10 СВ 1 2000 м слабый дождь 10/8 540 м
[Sc As op]
+24.8 +22.1 85 +32 +32 очень
душно
1007.7 1008.0 0.0
21 11.10 С 1 2000 м слабый дождь 10/8 540 м
[Sc As op]
+24.4 +22.0 86 +31 +31 очень
душно
1006.7 1007.0 0.0
00 12.10 СВ 1 4000 м {дождь} 10/6 540 м
[Sc As op]
+23.8 +19.4 76 +29 +29 душно 1006.1 1006.0 0.0
03 12.10 СВ 2 2000 м мгла 10/9 360 м
[St As op]
+24.8 +19.5 72 +30 +30 душно 1007.6 1008.0 +23.5 0.0
06 12.10 СВ 2 2000 м мгла 10/9 360 м
[St As op]
+27.6 +20.6 66 +34 +35 очень
душно
1007.2 1007.0
09 12.10 СВ 2 4000 м 5/5 600 м
[Sc]
+28.4 +20.2 61 +35 +39 очень
душно
1005.6 1006.0
12 12.10 СВ 1 4000 м 9/6 600 м
[Sc Ac trans]
+26.6 +21.5 74 +34 +34 очень
душно
1007.5 1008.0 +28.8
15 12.10 штиль 0 4000 м 9/4 600 м
[Sc Ac trans Ci fib]
+24.6 +20.6 78 +31 +31 очень
душно
1009.1 1009.0
18 12.10 штиль 0 4000 м мгла 9/4 600 м
[Sc Ac trans Ci fib]
+23.8 +20.7 83 +30 +30 очень
душно
1009.2 1009.0
21 12.10 штиль 0 2000 м мгла 9/4 600 м
[Sc Ac trans Ci fib]
+23.6 +20.9 85 +30 +30 очень
душно
1008.4 1008.0
00 13.10 штиль 0 2000 м мгла 9/4 600 м
[Sc Ac trans Ci fib]
+23.2 +21.1 88 +31 +31 очень
душно
1009.8 1010.0
03 13.10 штиль 0 4000 м мгла 10/5 540 м
[Sc As op]
+24.8 +21.5 82 +32 +32 очень
душно
1012.7 1013.0 +22.0
06 13.10 штиль 0 4000 м мгла 9/5 600 м
[Sc Ac trans]
+28.6 +21.1 64 +36 +42 очень
душно
1011.4 1011.0
09 13.10 штиль 0 4000 м 4/3 600 м
[Sc Ac trans]
+30.8 +21.3 57 +39 +47 очень
душно
1008.7 1009.0
12 13.10 ЮЗ 2 4000 м 6/4 600 м
[Sc Ac trans]
+28.6 +21.8 67 +37 +37 очень
душно
1009.5 1010.0 +32.0
15 13.10 Ю 1 4000 м 4/3 600 м
[Sc Ac trans]
+26.4 +22.6 80 +35 +35 очень
душно
1011.3 1011.0
18 13.10 штиль 0 4000 м ясно +25.0 +22.3 85 +33 +33 очень
душно
1011.3 1011.0
21 13.10 штиль 0 4000 м ясно +24.0 +21.9 88 +31 +31 очень
душно
1010.9 1011.0
00 14.10 штиль 0 2000 м дымка ясно +23.0 +21.5 91 +31 +31 очень
душно
1011.5 1012.0
03 14.10 штиль 0 500 м туман ясно +25.0 +22.6 87 +33 +41 очень
душно
1014.0 1014.0 +22.3
06 14.10 СЗ 1 4000 м 4/4 600 м
[Sc diur, vesp]
+31.0 +19.4 50 +37 +49 очень
душно
1012.3 1012.0
09 14.10 ЮЗ 1 4000 м 3/1 600 м
[Sc Ci fib]
+33.4 +15.5 34 +35 +45 душно 1009.3 1009.0
12 14.10 штиль 0 4000 м 3/1 750 м
[Cu hum Ci fib]
+30.0 +20.7 57 +37 +37 очень
душно
1009.8 1010.0 +33.7
15 14.10 штиль 0 4000 м ясно +26.4 +21.0 72 +33 +33 очень
душно
1012.0 1012.0
18 14.10 штиль 0 4000 м ясно +24.6 +21.3 82 +31 +31 очень
душно
1011.9 1012.0
21 14.10 штиль 0 4000 м ясно +23.6 +21.2 86 +30 +30 очень
душно
1010.9 1011.0
00 15.10 штиль 0 2000 м дымка ясно +21.8 +19.9 89 +27 +27 душно 1013.1 1013.0
03 15.10 штиль 0 2000 м мгла 1/0
[Ci fib]
+26.2 +21.1 74 +33 +41 очень
душно
1015.0 1015.0 +21.0
06 15.10 ЮЗ 1 4000 м мгла 3/0
[Ci fib]
+31.2 +19.3 49 +37 +54 опасность
солнечного
удара
1013.3 1013.0
09 15.10 штиль 0 4000 м мгла 6/3 600 м
[Sc Ci fib]
+33.2 +14.8 33 +35 +43 душно 1010.6 1011.0
12 15.10 штиль 0 4000 м мгла 9/3 600 м
[Sc Ac trans Ci fib]
+30.4 +19.1 51 +36 +36 очень
душно
1010.7 1011.0 +34.4
15 15.10 Ю 1 2000 м мгла 3/3 600 м
[Sc]
+26.8 +22.0 75 +35 +35 очень
душно
1013.3 1013.0
18 15.10 штиль 0 4000 м ясно +24.2 +21.2 83 +31 +31 очень
душно
1013.5 1014.0
21 15.10 штиль 0 4000 м ясно +23.0 +20.5 86 +30 +30 очень
душно
1013.0 1013.0
00 16.10 штиль 0 1000 м дымка 4/0
[Ac trans]
+20.8 +19.5 92 +25 +25 комфорт 1013.2 1013.0
03 16.10 штиль 0 2000 м мгла ясно +24.4 +17.3 65 +28 +36 душно 1015.3 1015.0 +20.2
06 16.10 ЮЗ 1 4000 м мгла 5/0
[Ac trans]
+31.4 +18.1 45 +36 +49 очень
душно
1013.7 1014.0
09 16.10 штиль 0 4000 м ясно +33.6 +13.6 30 +35 +47 душно 1010.9 1011.0
12 16.10 штиль 0 4000 м ясно +29.6 +16.5 45 +33 +33 душно 1010.9 1011.0 +34.6
15 16.10 штиль 0 4000 м мгла ясно +26.4 +18.6 62 +31 +31 душно 1013.1 1013.0
18 16.10 штиль 0 4000 м мгла ясно +24.2 +19.9 77 +30 +30 очень
душно
1013.4 1013.0
21 16.10 штиль 0 2000 м мгла ясно +23.0 +20.5 86 +30 +30 очень
душно
1012.7 1013.0
00 17.10 штиль 0 2000 м мгла 3/0
[Ci fib]
+21.0 +17.8 82 +25 +25 комфорт 1012.9 1013.0
03 17.10 штиль 0 2000 м мгла ясно +25.0 +20.1 74 +31 +38 очень
душно
1015.0 1015.0 +20.3
06 17.10 штиль 0 4000 м мгла ясно +31.0 +24.6 69 +44 +64 опасность
перегрева
1012.3 1012.0
09 17.10 ЮЗ 1 4000 м мгла ясно +34.0 +16.8 36 +37 +47 очень
душно
1008.5 1009.0
12 17.10 ЮЗ 1 4000 м мгла ясно +29.6 +18.1 50 +34 +34 очень
душно
1009.0 1009.0 +34.2
15 17.10 штиль 0 4000 м ясно +26.4 +21.3 74 +34 +34 очень
душно
1011.0 1011.0
18 17.10 штиль 0 4000 м ясно +24.6 +22.2 87 +32 +32 очень
душно
1011.1 1011.0

 

Местоположение метеостанции Jharsuguda (Orissa, Индия): широта 21.92 долгота 84.08 высота над уровнем моря 230 м.

В архиве по умолчанию представлена погода в Jharsuguda за последнюю неделю. Архивные данные за месяц целиком и за предыдущие месяцы, начиная с января 2011 года, Вы можете получить, выбрав интересующий диапазон дат из раскрывающегося списка и нажав кнопку "Ввод!".


*Определитесь, кто Вы:
робот инопланетянин человек

Внимание! Время в таблицах - всемирное. Для получения местного времени необходимо прибавить поправку, которая в Jharsuguda равна 5.5 ч.

Смотрите также архив погоды в соседних городах и на ближайших метеорологических станциях:

Погода в Sundargarh (Orissa, Индия) (23 км)
Погода в Hirakud (Orissa, Индия) (50 км)
Погода в Sambalpur (Orissa, Индия) (51 км)
Погода в Keongjhargarh (Orissa, Индия) (152 км)
Погода в Angul (Orissa, Индия) (161 км)
Погода в Phulbani (Orissa, Индия) (161 км)
Погода в Ambikapur (Chhattisgarh, Индия) (163 км)
Погода в Chaibasa (Jharkhand, Индия) (192 км)
Погода в Titlagarh (Orissa, Индия) (198 км)
Погода в Bilaspur (Chhattisgarh, Индия) (198 км)

Пояснения к столбцам:

Ветер - указаны скорость ветра в м/с - средняя за 10 мин, порывы в срок и между сроками (в фигурных скобках) и направление, откуда дует ветер: С - северный, СВ - северо-восточный, В - восточный, ЮВ - юго-восточный, Ю - южный, ЮЗ - юго-западный, З - западный, СЗ - северо-западный.
Видимость - горизонтальная дальность видимости в метрах или километрах. При видимости от 1 до 10 км при отсутствии осадков обычно наблюдается дымка, при ухудшении видимости до 1 км и менее - туман. В сухую погоду видимость может ухудшаться дымом, пылью или мглою.
Явления - указаны атмосферные явления, наблюдавшиеся в срок или в последний час перед сроком; фигурными скобками обозначены явления, наблюдавшиеся между сроками (за 1-3 часа до срока); квадратными скобками обозначены град или гололедные отложения с указанием их диаметра в мм.
Облачность - указаны через наклонную черту общая и нижняя облачность в баллах и высота нижней границы облаков в метрах; квадратными скобками обозначены формы облаков: Ci - перистые, Cs - перисто-слоистые, Cc - перисто-кучевые, Ac - высококучевые, As - высокослоистые, Sc - слоисто-кучевые, Ns - слоисто-дождевые, Cu - кучевые, Cb - кучево-дождевые. Подробнее классификацию облаков см. в Атласе облаков (PDF).
T - Температура воздуха - температура, измеренная на высоте 2 м над землей.
Td - Температура точки росы - температура, при понижении до которой содержащийся в воздухе водяной пар достигнет насыщения.
f - Относительная влажность воздуха - влажноcть воздуха, измеренная на высоте 2 м над землей.
Te - Эффективная температура - температура, которую ощущает одетый по сезону человек в тени. Характеристика душности погоды. При расчете учитывается влияние влажности воздуха и скорости ветра на теплоощущения человека.
Tes - Эффективная температура на солнце - температура, которую ощущает человек, с поправкой на солнечный нагрев. Характеристика знойности погоды. Зависит от высоты солнца над горизонтом, облачности и скорости ветра. Ночью, в пасмурную погоду, а также при ветре 12 м/с и более поправка равна нулю.
P - Атмосферное давление - приведенное к уровню моря атмосферное давление.
Po - Атмосферное давление - измеренное на уровне метеостанции атмосферное давление.
Tmin - Минимальная температура - минимум температуры воздуха на высоте 2 м над землей.
Tmax - Максимальная температура - максимум температуры воздуха на высоте 2 м над землей.
R - Количество осадков - Количество выпавших осадков за период времени, мм. При наведении курсора мыши на число - период времени, за который выпало указанное количество осадков.
R24 - Количество осадков - Количество выпавших осадков за 24 часа, мм.
S - Снежный покров - Высота снежного покрова, см. При наведении курсора мыши на число - состояние снежного покрова и степень покрытия местности в баллах.